TAR283 LFBO-DTTA

Flight info

Callsign TAR283
Flight time 1h 30m
Altitude 37000
Route AMOLO DCT DEGOL DCT FJR DCT AMFAC DCT BATIV DCT PELOS DCT IPROM DCT CAR DCT NOLSI A868 MEDAR
Aircraft A320/M-SDE3FGHIRWY/LB1

Departure

Time 2026-04-26 22:40
Airport Toulouse-Blagnac Airport (LFBO)

Arrival

Time 2026-04-27 00:11
Airport Tunis Carthage International Airport (DTTA)
Time Latitude Longitude Altitude Speed Heading
2026-04-26 22:26 43.63192 1.36936 494 ft 0 kts 105°
2026-04-26 22:30 43.63194 1.36927 484 ft 2 kts 105°
2026-04-26 22:30 43.63199 1.36900 486 ft 3 kts 105°
2026-04-26 22:30 43.63205 1.36873 488 ft 3 kts 105°
2026-04-26 22:30 43.63210 1.36846 485 ft 3 kts 105°
2026-04-26 22:31 43.63215 1.36821 489 ft 2 kts 106°
2026-04-26 22:31 43.63217 1.36811 489 ft 0 kts 106°
2026-04-26 22:31 43.63217 1.36810 489 ft 0 kts 106°
2026-04-26 22:33 43.63211 1.36812 488 ft 2 kts 156°
2026-04-26 22:33 43.63184 1.36820 489 ft 6 kts 166°
2026-04-26 22:34 43.63128 1.36831 494 ft 10 kts 200°
2026-04-26 22:34 43.63057 1.36786 494 ft 14 kts 160°
2026-04-26 22:34 43.62963 1.36877 485 ft 19 kts 143°
2026-04-26 22:34 43.62846 1.36998 486 ft 23 kts 142°
2026-04-26 22:35 43.62715 1.37133 487 ft 23 kts 143°
2026-04-26 22:35 43.62584 1.37271 487 ft 25 kts 143°
2026-04-26 22:35 43.62500 1.37359 486 ft 14 kts 143°
2026-04-26 22:35 43.62420 1.37443 494 ft 15 kts 143°
2026-04-26 22:36 43.62333 1.37533 488 ft 17 kts 143°
2026-04-26 22:36 43.62238 1.37632 489 ft 17 kts 143°
2026-04-26 22:36 43.62137 1.37629 487 ft 16 kts 230°
2026-04-26 22:36 43.62086 1.37532 488 ft 12 kts 232°
2026-04-26 22:37 43.62028 1.37429 483 ft 15 kts 232°
2026-04-26 22:37 43.61985 1.37351 488 ft 16 kts 233°
2026-04-26 22:37 43.61965 1.37315 491 ft 0 kts 233°
2026-04-26 22:37 43.61958 1.37301 494 ft 4 kts 233°
2026-04-26 22:38 43.61929 1.37250 494 ft 9 kts 233°
2026-04-26 22:38 43.61938 1.37167 490 ft 12 kts 322°
2026-04-26 22:38 43.61958 1.37146 487 ft 0 kts 324°
2026-04-26 22:39 43.61965 1.37139 486 ft 9 kts 324°
2026-04-26 22:39 43.62226 1.36868 489 ft 82 kts 322°
2026-04-26 22:39 43.62846 1.36222 488 ft 138 kts 323°
2026-04-26 22:39 43.63729 1.35300 586 ft 174 kts 322°
2026-04-26 22:40 43.64718 1.34255 957 ft 189 kts 322°
2026-04-26 22:40 43.65811 1.33101 1447 ft 197 kts 323°
2026-04-26 22:40 43.66905 1.32026 2197 ft 194 kts 325°
2026-04-26 22:40 43.68054 1.30929 2595 ft 211 kts 326°
2026-04-26 22:41 43.69461 1.30143 2903 ft 234 kts 358°
2026-04-26 22:41 43.71076 1.30793 3333 ft 257 kts 36°
2026-04-26 22:41 43.72299 1.32635 4095 ft 265 kts 56°
2026-04-26 22:41 43.73253 1.34849 4982 ft 270 kts 61°
2026-04-26 22:42 43.74130 1.37154 5855 ft 273 kts 63°
2026-04-26 22:42 43.75029 1.39485 6719 ft 275 kts 62°
2026-04-26 22:42 43.75976 1.41807 7530 ft 279 kts 60°
2026-04-26 22:42 43.76975 1.44135 8312 ft 284 kts 58°
2026-04-26 22:43 43.78022 1.46482 9100 ft 288 kts 57°
2026-04-26 22:43 43.79100 1.48841 9897 ft 292 kts 57°
2026-04-26 22:43 43.80210 1.51233 10521 ft 302 kts 57°
2026-04-26 22:43 43.81380 1.53780 10737 ft 326 kts 60°
2026-04-26 22:44 43.82362 1.56735 10917 ft 349 kts 71°
2026-04-26 22:44 43.83073 1.59992 11271 ft 363 kts 73°
2026-04-26 22:44 43.83800 1.63374 11890 ft 368 kts 73°
2026-04-26 22:44 43.84543 1.66792 12563 ft 373 kts 73°
2026-04-26 22:45 43.85297 1.70252 13230 ft 377 kts 73°
2026-04-26 22:45 43.86057 1.73756 13897 ft 381 kts 73°
2026-04-26 22:45 43.86823 1.77296 14487 ft 385 kts 73°
2026-04-26 22:45 43.87595 1.80874 15077 ft 388 kts 73°
2026-04-26 22:46 43.88371 1.84479 15667 ft 392 kts 73°
2026-04-26 22:46 43.89145 1.88069 16246 ft 394 kts 73°
2026-04-26 22:46 43.89923 1.91686 16816 ft 398 kts 73°
2026-04-26 22:46 43.90713 1.95378 17378 ft 401 kts 73°
2026-04-26 22:47 43.91410 1.99131 17921 ft 404 kts 80°
2026-04-26 22:47 43.91644 2.03027 18454 ft 408 kts 90°
2026-04-26 22:47 43.91359 2.06949 18916 ft 411 kts 101°
2026-04-26 22:47 43.90716 2.10822 19383 ft 414 kts 103°
2026-04-26 22:48 43.90059 2.14719 19853 ft 416 kts 103°
2026-04-26 22:48 43.89401 2.18643 20319 ft 419 kts 103°
2026-04-26 22:48 43.88741 2.22593 20782 ft 421 kts 103°
2026-04-26 22:48 43.88079 2.26577 21239 ft 424 kts 103°
2026-04-26 22:49 43.87413 2.30580 21683 ft 427 kts 103°
2026-04-26 22:49 43.86741 2.34606 22120 ft 429 kts 103°
2026-04-26 22:49 43.86062 2.38653 22556 ft 432 kts 103°
2026-04-26 22:49 43.85382 2.42673 22985 ft 435 kts 103°
2026-04-26 22:50 43.84686 2.46763 23407 ft 438 kts 103°
2026-04-26 22:50 43.83983 2.50888 23800 ft 440 kts 103°
2026-04-26 22:50 43.83277 2.55033 24137 ft 443 kts 103°
2026-04-26 22:50 43.82571 2.59195 24477 ft 445 kts 103°
2026-04-26 22:51 43.81857 2.63375 24807 ft 448 kts 103°
2026-04-26 22:51 43.81129 2.67584 25146 ft 450 kts 103°
2026-04-26 22:51 43.80394 2.71804 25474 ft 452 kts 103°
2026-04-26 22:51 43.79654 2.76055 25797 ft 454 kts 103°
2026-04-26 22:52 43.78910 2.80322 26119 ft 457 kts 103°
2026-04-26 22:52 43.78173 2.84546 26431 ft 459 kts 103°
2026-04-26 22:52 43.77420 2.88860 26750 ft 461 kts 103°
2026-04-26 22:52 43.76664 2.93191 27034 ft 463 kts 103°
2026-04-26 22:53 43.75902 2.97540 27311 ft 466 kts 103°
2026-04-26 22:53 43.75133 3.01916 27594 ft 468 kts 103°
2026-04-26 22:53 43.74368 3.06244 27869 ft 470 kts 103°
2026-04-26 22:53 43.73577 3.10703 28143 ft 472 kts 103°
2026-04-26 22:54 43.72800 3.15071 28417 ft 474 kts 103°
2026-04-26 22:54 43.72009 3.19503 28683 ft 476 kts 103°
2026-04-26 22:54 43.71214 3.23957 29015 ft 476 kts 103°
2026-04-26 22:54 43.70423 3.28393 29427 ft 475 kts 103°
2026-04-26 22:55 43.69634 3.32823 29831 ft 474 kts 103°
2026-04-26 22:55 43.68844 3.37232 30230 ft 473 kts 103°
2026-04-26 22:55 43.68050 3.41635 30569 ft 472 kts 103°
2026-04-26 22:55 43.67257 3.46027 30902 ft 471 kts 103°
2026-04-26 22:56 43.66465 3.50412 31213 ft 470 kts 103°
2026-04-26 22:56 43.65670 3.54796 31505 ft 471 kts 103°
2026-04-26 22:56 43.64870 3.59186 31799 ft 471 kts 103°
2026-04-26 22:56 43.64079 3.63522 32091 ft 471 kts 103°
2026-04-26 22:57 43.63281 3.67912 32381 ft 471 kts 103°
2026-04-26 22:57 43.62481 3.72306 32668 ft 472 kts 103°
2026-04-26 22:57 43.61673 3.76715 32961 ft 472 kts 103°
2026-04-26 22:57 43.60864 3.81106 33248 ft 472 kts 103°
2026-04-26 22:58 43.60051 3.85499 33540 ft 472 kts 103°
2026-04-26 22:58 43.59236 3.89891 33827 ft 472 kts 103°
2026-04-26 22:58 43.58259 3.94155 34116 ft 473 kts 112°
2026-04-26 22:58 43.56813 3.98230 34379 ft 472 kts 121°
2026-04-26 22:59 43.54939 4.01941 34646 ft 471 kts 130°
2026-04-26 22:59 43.52776 4.05323 34934 ft 470 kts 132°
2026-04-26 22:59 43.50602 4.08684 35221 ft 469 kts 132°
2026-04-26 22:59 43.48437 4.12044 35504 ft 467 kts 132°
2026-04-26 23:00 43.46277 4.15400 35775 ft 466 kts 132°
2026-04-26 23:00 43.44127 4.18733 36035 ft 465 kts 132°
2026-04-26 23:00 43.42002 4.22021 36293 ft 463 kts 132°
2026-04-26 23:00 43.39858 4.25330 36535 ft 462 kts 132°
2026-04-26 23:01 43.37715 4.28628 36777 ft 461 kts 133°
2026-04-26 23:01 43.35580 4.31907 37016 ft 460 kts 133°
2026-04-26 23:01 43.33440 4.35187 37132 ft 461 kts 133°
2026-04-26 23:02 43.29159 4.41749 37163 ft 461 kts 133°
2026-04-26 23:02 43.24871 4.48316 37153 ft 461 kts 133°
2026-04-26 23:03 43.20586 4.54859 37164 ft 461 kts 133°
2026-04-26 23:03 43.16323 4.61357 37160 ft 461 kts 133°
2026-04-26 23:04 43.12038 4.67884 37163 ft 460 kts 133°
2026-04-26 23:04 43.07744 4.74396 37163 ft 460 kts 133°
2026-04-26 23:05 43.03455 4.80890 37170 ft 460 kts 133°
2026-04-26 23:05 42.99151 4.87376 37173 ft 460 kts 133°
2026-04-26 23:06 42.94841 4.93853 37174 ft 460 kts 133°
2026-04-26 23:06 42.90540 5.00329 37174 ft 460 kts 133°
2026-04-26 23:07 42.86374 5.06965 37173 ft 460 kts 127°
2026-04-26 23:07 42.82583 5.13988 37169 ft 460 kts 127°
2026-04-26 23:08 42.78808 5.20964 37173 ft 460 kts 127°
2026-04-26 23:08 42.75006 5.27969 37175 ft 460 kts 127°
2026-04-26 23:09 42.71191 5.34975 37177 ft 460 kts 127°
2026-04-26 23:09 42.67371 5.41999 37174 ft 460 kts 127°
2026-04-26 23:10 42.63568 5.48954 37164 ft 465 kts 127°
2026-04-26 23:10 42.59710 5.55978 37164 ft 463 kts 127°
2026-04-26 23:11 42.55833 5.63035 37160 ft 470 kts 127°
2026-04-26 23:11 42.51910 5.70169 37160 ft 472 kts 127°
2026-04-26 23:12 42.47941 5.77252 37154 ft 472 kts 133°
2026-04-26 23:12 42.43092 5.83248 37159 ft 472 kts 139°
2026-04-26 23:13 42.38154 5.89102 37160 ft 472 kts 139°
2026-04-26 23:13 42.33225 5.94916 37161 ft 472 kts 139°
2026-04-26 23:14 42.28271 6.00745 37165 ft 472 kts 139°
2026-04-26 23:14 42.23321 6.06572 37165 ft 472 kts 139°
2026-04-26 23:15 42.18362 6.12403 37168 ft 472 kts 139°
2026-04-26 23:15 42.13402 6.18221 37166 ft 472 kts 139°
2026-04-26 23:16 42.08443 6.24022 37170 ft 472 kts 139°
2026-04-26 23:16 42.03475 6.29819 37170 ft 472 kts 139°
2026-04-26 23:17 41.98503 6.35608 37171 ft 472 kts 139°
2026-04-26 23:17 41.93549 6.41362 37177 ft 473 kts 139°
2026-04-26 23:18 41.88566 6.47148 37176 ft 473 kts 139°
2026-04-26 23:18 41.83609 6.52881 37178 ft 473 kts 140°
2026-04-26 23:19 41.78618 6.58628 37183 ft 472 kts 140°
2026-04-26 23:19 41.73638 6.64367 37183 ft 472 kts 140°
2026-04-26 23:20 41.68656 6.70108 37184 ft 472 kts 140°
2026-04-26 23:20 41.63665 6.75825 37184 ft 472 kts 140°
2026-04-26 23:21 41.59518 6.80567 37185 ft 472 kts 140°
2026-04-26 23:21 41.53721 6.87198 37183 ft 471 kts 140°
2026-04-26 23:22 41.49543 6.91956 37188 ft 471 kts 140°
2026-04-26 23:22 41.44580 6.97591 37187 ft 471 kts 140°
2026-04-26 23:23 41.39592 7.03260 37191 ft 471 kts 140°
2026-04-26 23:23 41.34603 7.08925 37187 ft 471 kts 140°
2026-04-26 23:24 41.29606 7.14584 37189 ft 471 kts 140°
2026-04-26 23:24 41.24616 7.20216 37189 ft 471 kts 140°
2026-04-26 23:25 41.19613 7.25833 37189 ft 471 kts 140°
2026-04-26 23:25 41.14608 7.31450 37192 ft 471 kts 140°
2026-04-26 23:26 41.09640 7.37023 37195 ft 471 kts 140°
2026-04-26 23:26 41.04634 7.42628 37196 ft 471 kts 140°
2026-04-26 23:27 40.99629 7.48221 37199 ft 471 kts 140°
2026-04-26 23:27 40.94617 7.53806 37197 ft 471 kts 140°
2026-04-26 23:28 40.89603 7.59384 37196 ft 471 kts 140°
2026-04-26 23:28 40.84583 7.64961 37197 ft 471 kts 141°
2026-04-26 23:29 40.79567 7.70522 37195 ft 471 kts 141°
2026-04-26 23:29 40.74537 7.76082 37195 ft 471 kts 141°
2026-04-26 23:30 40.69541 7.81595 37192 ft 470 kts 141°
2026-04-26 23:30 40.64521 7.87119 37191 ft 470 kts 141°
2026-04-26 23:31 40.59492 7.92638 37191 ft 470 kts 141°
2026-04-26 23:31 40.54472 7.98137 37186 ft 469 kts 141°
2026-04-26 23:32 40.49464 8.03614 37186 ft 469 kts 141°
2026-04-26 23:32 40.44445 8.09102 37186 ft 469 kts 141°
2026-04-26 23:33 40.39454 8.14540 37189 ft 469 kts 141°
2026-04-26 23:33 40.34403 8.20028 37192 ft 468 kts 141°
2026-04-26 23:34 40.29418 8.25444 37193 ft 468 kts 141°
2026-04-26 23:34 40.24400 8.30885 37200 ft 468 kts 141°
2026-04-26 23:35 40.19381 8.36315 37196 ft 468 kts 141°
2026-04-26 23:35 40.14355 8.41730 37197 ft 468 kts 141°
2026-04-26 23:36 40.09317 8.47142 37196 ft 468 kts 141°
2026-04-26 23:36 40.04325 8.52508 37195 ft 467 kts 141°
2026-04-26 23:37 39.99300 8.57900 37194 ft 467 kts 141°
2026-04-26 23:37 39.94276 8.63284 37197 ft 468 kts 141°
2026-04-26 23:38 39.89242 8.68673 37201 ft 468 kts 141°
2026-04-26 23:38 39.84198 8.74053 37204 ft 468 kts 142°
2026-04-26 23:39 39.79183 8.79386 37203 ft 468 kts 142°
2026-04-26 23:39 39.74242 8.84637 37204 ft 469 kts 142°
2026-04-26 23:40 39.69183 8.89995 37198 ft 468 kts 142°
2026-04-26 23:40 39.64125 8.95343 37187 ft 469 kts 142°
2026-04-26 23:41 39.59056 9.00696 37185 ft 469 kts 142°
2026-04-26 23:41 39.53993 9.06040 37174 ft 470 kts 142°
2026-04-26 23:42 39.48908 9.11400 37171 ft 470 kts 142°
2026-04-26 23:42 39.41307 9.19383 37172 ft 471 kts 142°
2026-04-26 23:43 39.36195 9.24716 37193 ft 472 kts 142°
2026-04-26 23:43 39.31079 9.30054 37193 ft 473 kts 142°
2026-04-26 23:44 39.25963 9.35397 37191 ft 473 kts 143°
2026-04-26 23:44 39.20834 9.40737 37182 ft 473 kts 143°
2026-04-26 23:45 39.15730 9.46044 37181 ft 474 kts 143°
2026-04-26 23:45 39.10519 9.51231 37176 ft 472 kts 150°
2026-04-26 23:46 39.04818 9.55451 37179 ft 472 kts 153°
2026-04-26 23:46 38.99099 9.59656 37175 ft 473 kts 153°
2026-04-26 23:47 38.93384 9.63862 37177 ft 474 kts 153°
2026-04-26 23:47 38.87700 9.68040 37176 ft 475 kts 153°
2026-04-26 23:48 38.81961 9.72246 37172 ft 475 kts 153°
2026-04-26 23:48 38.76211 9.76450 37170 ft 476 kts 153°
2026-04-26 23:49 38.70451 9.80648 37169 ft 476 kts 154°
2026-04-26 23:49 38.64687 9.84842 37165 ft 477 kts 154°
2026-04-26 23:50 38.58899 9.89049 37166 ft 478 kts 154°
2026-04-26 23:50 38.56003 9.91157 36942 ft 481 kts 154°
2026-04-26 23:50 38.53102 9.93264 36618 ft 479 kts 154°
2026-04-26 23:51 38.50205 9.95364 36356 ft 475 kts 154°
2026-04-26 23:51 38.47339 9.97436 36101 ft 473 kts 155°
2026-04-26 23:51 38.44510 9.99478 35850 ft 472 kts 155°
2026-04-26 23:51 38.41651 10.01539 35446 ft 473 kts 155°
2026-04-26 23:52 38.38759 10.03619 34445 ft 480 kts 155°
2026-04-26 23:52 38.35831 10.05723 33413 ft 486 kts 155°
2026-04-26 23:52 38.32884 10.07840 32568 ft 485 kts 154°
2026-04-26 23:52 38.29919 10.09972 31583 ft 489 kts 154°
2026-04-26 23:53 38.26962 10.12105 30789 ft 487 kts 153°
2026-04-26 23:53 38.24001 10.14239 29781 ft 489 kts 153°
2026-04-26 23:53 38.21027 10.16380 28637 ft 492 kts 153°
2026-04-26 23:53 38.18045 10.18523 27535 ft 493 kts 153°
2026-04-26 23:54 38.15092 10.20641 26395 ft 494 kts 153°
2026-04-26 23:54 38.12124 10.22765 24673 ft 490 kts 152°
2026-04-26 23:54 38.09126 10.24904 22818 ft 499 kts 153°
2026-04-26 23:54 38.06102 10.26964 22185 ft 481 kts 154°
2026-04-26 23:55 38.03084 10.28504 20985 ft 461 kts 171°
2026-04-26 23:55 37.99968 10.28692 20245 ft 436 kts 186°
2026-04-26 23:55 37.97003 10.28482 20017 ft 428 kts 184°
2026-04-26 23:55 37.94015 10.28440 19279 ft 429 kts 181°
2026-04-26 23:56 37.91025 10.28518 18502 ft 429 kts 180°
2026-04-26 23:56 37.88038 10.28638 17678 ft 429 kts 180°
2026-04-26 23:56 37.85043 10.28748 16633 ft 433 kts 181°
2026-04-26 23:56 37.82012 10.28821 15504 ft 439 kts 181°
2026-04-26 23:57 37.79009 10.28861 14410 ft 426 kts 182°
2026-04-26 23:57 37.76064 10.28881 13088 ft 419 kts 182°
2026-04-26 23:57 37.73206 10.28892 12392 ft 401 kts 182°
2026-04-26 23:57 37.70440 10.28900 11818 ft 395 kts 182°
2026-04-26 23:58 37.67707 10.28905 11363 ft 387 kts 182°
2026-04-26 23:58 37.65078 10.28918 11236 ft 370 kts 182°
2026-04-26 23:58 37.62561 10.28937 11112 ft 354 kts 182°
2026-04-26 23:58 37.60177 10.28958 10991 ft 340 kts 182°
2026-04-26 23:59 37.57852 10.28980 10869 ft 327 kts 182°
2026-04-26 23:59 37.55612 10.28999 10750 ft 316 kts 183°
2026-04-26 23:59 37.53453 10.29013 10618 ft 305 kts 183°
2026-04-26 23:59 37.51351 10.29023 10425 ft 298 kts 183°
2026-04-27 00:00 37.49283 10.29033 10322 ft 297 kts 183°
2026-04-27 00:00 37.47202 10.29043 10199 ft 297 kts 184°
2026-04-27 00:00 37.45139 10.29053 10068 ft 297 kts 184°
2026-04-27 00:00 37.43060 10.29064 9695 ft 300 kts 183°
2026-04-27 00:01 37.40996 10.29075 9344 ft 297 kts 183°
2026-04-27 00:01 37.38934 10.29092 8989 ft 295 kts 183°
2026-04-27 00:01 37.36887 10.29108 8593 ft 294 kts 182°
2026-04-27 00:01 37.34854 10.29126 8112 ft 290 kts 182°
2026-04-27 00:02 37.32845 10.29142 7542 ft 288 kts 182°
2026-04-27 00:02 37.30856 10.29158 7027 ft 283 kts 182°
2026-04-27 00:02 37.28899 10.29171 6560 ft 278 kts 181°
2026-04-27 00:02 37.26988 10.29182 6116 ft 277 kts 181°
2026-04-27 00:03 37.25038 10.29191 5680 ft 277 kts 181°
2026-04-27 00:03 37.23110 10.29201 5259 ft 276 kts 181°
2026-04-27 00:03 37.21211 10.29213 4893 ft 273 kts 181°
2026-04-27 00:03 37.19310 10.29225 4471 ft 272 kts 181°
2026-04-27 00:04 37.18062 10.29234 4195 ft 271 kts 180°
2026-04-27 00:04 37.16180 10.29247 3801 ft 269 kts 180°
2026-04-27 00:04 37.14315 10.29258 3458 ft 265 kts 180°
2026-04-27 00:04 37.12514 10.29270 3328 ft 253 kts 179°
2026-04-27 00:05 37.10798 10.29282 3209 ft 240 kts 179°
2026-04-27 00:05 37.09170 10.29193 3116 ft 228 kts 187°
2026-04-27 00:05 37.07661 10.28861 3119 ft 214 kts 191°
2026-04-27 00:05 37.06244 10.28476 3117 ft 204 kts 192°
2026-04-27 00:06 37.04868 10.28098 3118 ft 201 kts 192°
2026-04-27 00:06 37.03509 10.27725 3118 ft 200 kts 192°
2026-04-27 00:06 37.02154 10.27354 3039 ft 200 kts 192°
2026-04-27 00:06 37.00799 10.26983 2821 ft 198 kts 191°
2026-04-27 00:07 36.99495 10.26627 2589 ft 185 kts 191°
2026-04-27 00:07 36.98272 10.26292 2344 ft 174 kts 191°
2026-04-27 00:07 36.97150 10.25985 2134 ft 157 kts 191°
2026-04-27 00:07 36.96127 10.25706 1925 ft 146 kts 191°
2026-04-27 00:08 36.95148 10.25439 1725 ft 142 kts 191°
2026-04-27 00:08 36.94187 10.25177 1532 ft 141 kts 191°
2026-04-27 00:08 36.93230 10.24915 1337 ft 140 kts 191°
2026-04-27 00:08 36.92281 10.24649 1149 ft 140 kts 192°
2026-04-27 00:09 36.91327 10.24397 964 ft 139 kts 189°
2026-04-27 00:09 36.90434 10.24168 787 ft 140 kts 192°
2026-04-27 00:09 36.89489 10.23887 605 ft 140 kts 192°
2026-04-27 00:09 36.88540 10.23624 418 ft 140 kts 191°
2026-04-27 00:10 36.87590 10.23369 238 ft 139 kts 192°
2026-04-27 00:10 36.86642 10.23115 64 ft 139 kts 190°
2026-04-27 00:10 36.85796 10.22897 31 ft 115 kts 194°
2026-04-27 00:10 36.85119 10.22706 33 ft 87 kts 192°
2026-04-27 00:11 36.84658 10.22581 29 ft 40 kts 193°
2026-04-27 00:11 36.84520 10.22465 29 ft 23 kts 228°
2026-04-27 00:11 36.84481 10.22294 30 ft 13 kts 272°
2026-04-27 00:11 36.84494 10.22189 30 ft 11 kts 283°
2026-04-27 00:12 36.84499 10.22099 30 ft 10 kts 255°
2026-04-27 00:12 36.84465 10.22035 30 ft 8 kts 232°
2026-04-27 00:12 36.84429 10.21987 30 ft 7 kts 216°
2026-04-27 00:12 36.84394 10.21970 30 ft 6 kts 193°
2026-04-27 00:13 36.84361 10.21959 30 ft 3 kts 210°
2026-04-27 00:13 36.84356 10.21934 30 ft 3 kts 269°
2026-04-27 00:13 36.84362 10.21898 30 ft 3 kts 283°
2026-04-27 00:13 36.84365 10.21881 30 ft 2 kts 283°
2026-04-27 00:14 36.84367 10.21869 30 ft 1 kts 283°
2026-04-27 00:14 36.84367 10.21866 30 ft 0 kts 283°